Regional Weather Roundup
Issued by NWS

Home | Current Version | Previous Version | Graphics & Text | Print | Product List | Glossary On
Versions: 1 2 3 4 5 6 7 8 9 10 11 12 13 14 15 16 17 18 19 20 21 22 23 24 25 26 27 28 29 30 31 32 33 34 35 36 37 38 39 40 41 42 43 44 45 46 47 48 49 50
000
ASUS43 KBIS 300802
RWRND

NORTH DAKOTA REGIONAL WEATHER ROUNDUP
NATIONAL WEATHER SERVICE BISMARCK ND
300 AM CDT SUN APR 30 2017

NOTE: "FAIR" INDICATES FEW OR NO CLOUDS BELOW 12,000 FEET WITH NO
SIGNIFICANT WEATHER AND/OR OBSTRUCTIONS TO VISIBILITY.


NDZ001>003-009>011-017-300900-
NORTHWEST NORTH DAKOTA

CITY           SKY/WX    TMP DP  RH WIND       PRES   REMARKS
WILLISTON      FAIR      35  31  85 CALM      30.06F
MINOT          FAIR      48  21  34 S18       30.10F
MINOT AFB      CLEAR     44  25  47 S12       30.08F
$$

NDZ018>021-031>035-040>046-300900-
SOUTHWEST NORTH DAKOTA

CITY           SKY/WX    TMP DP  RH WIND       PRES   REMARKS
BISMARCK       FAIR      37  25  61 CALM      30.16F
DICKINSON      FAIR      31  19  61 S12       30.09F
GARRISON         N/A     37  23  56 CALM      30.12F
HETTINGER ARPT CLEAR     36  20  52 CALM      30.13F
$$

NDZ004>008-012>016-024-026-027-054-300900-
NORTHEAST NORTH DAKOTA

CITY           SKY/WX    TMP DP  RH WIND       PRES   REMARKS
GRAND FORKS    PTCLDY    43  34  70 SE3       30.16F
GRND FRKS AFB  PTCLDY    42  29  60 S3        30.16F
DEVILS LAKE    FAIR      44  26  49 S9        30.16F
$$

NDZ022-023-025-028>030-036>039-047>053-300900-
SOUTHEAST NORTH DAKOTA

CITY           SKY/WX    TMP DP  RH WIND       PRES   REMARKS
FARGO          CLOUDY    39  30  70 NE3       30.17F
JAMESTOWN      FAIR      37  28  70 CALM      30.15F
$$





USA.gov is the U.S. government's official web portal to all federal, state and local government web resources and services.